Location: Aragoneses
(41.0275°N, 4.3847°W)
Time: 13:28:51
(UTC+00:00)

Hubble Space Telescope - Visible Passes

Search period start: 15 February 2026 00:00
Search period end: 25 February 2026 00:00
Orbit: 477 x 479 km, 28.5° (Epoch: 14 February)

Date Brightness Start Highest point End Pass type
(mag) Time Alt. Az. Time Alt. Az. Time Alt. Az.
20 Feb 3.1 06:33:00 10° SSW 06:34:31 12° S 06:36:03 10° SSE visible
21 Feb 3.1 06:02:41 10° SSW 06:04:13 12° S 06:05:45 10° SSE visible
22 Feb 3.0 05:32:42 11° SSW 05:33:54 12° S 05:35:25 10° SSE visible
23 Feb 3.1 05:04:04 12° S 05:04:04 12° S 05:05:05 10° SSE visible
